Temperature
9 9 9 9 9 9 10 10 10 10 10 10 10 10 10 10 10 10 10 10 10 10 10 10 10 10 9 9 9 9 9 9 8 8 8 7 7 6 6 5 5 5 4
8 9 9 9 9 9 9 9 9 9 9 9 9 9 9 9 9 9 9 9 9 9 9 9 9 9 9 9 9 8 8 8 8 7 7 7 6 5 5 5 4 4 3
8 8 8 8 8 8 8 8 8 8 8 8 8 8 9 9 9 9 8 8 8 8 8 8 8 8 8 8 8 8 8 7 7 7 7 6 5 5 4 4 4 3 3
7 7 7 7 7 7 7 7 7 7 7 8 8 8 8 8 8 8 7 7 7 7 7 7 7 8 8 7 7 7 7 7 7 6 6 5 5 4 4 3 3 3 2
7 7 7 7 7 7 7 7 7 7 7 7 7 7 7 7 7 7 7 7 7 7 7 7 7 7 7 7 7 7 6 6 6 6 5 5 5 4 4 3 3 2 2
6 6 6 6 6 6 6 6 6 6 6 6 6 6 6 6 6 6 6 6 6 6 6 6 6 6 6 6 6 6 6 6 6 5 5 5 5 4 3 3 2 2 1
5 5 5 5 5 5 5 5 5 5 5 5 5 5 5 5 5 5 5 5 5 5 5 5 5 5 6 5 5 5 5 5 5 5 5 5 5 4 3 2 2 2 2
5 4 4 4 5 4 5 5 4 4 4 4 4 4 4 4 4 4 4 4 4 4 4 4 4 5 5 5 4 4 4 4 4 4 4 4 3 3 3 2 2 1 1
4 4 4 4 4 4 4 4 4 4 4 4 3 3 3 4 4 4 3 3 3 4 4 4 4 4 4 4 4 4 4 4 4 3 3 3 3 2 2 2 1 1 1
3 3 3 3 3 3 3 3 3 3 3 3 3 3 3 3 3 3 3 3 3 3 3 3 3 3 3 3 3 3 3 3 3 3 3 2 2 2 2 1 1 1 1
3 3 2 2 2 2 2 2 2 2 2 2 2 2 2 2 2 2 2 2 2 2 2 2 2 3 3 3 2 3 3 2 2 2 2 2 1 1 1 1 0 0 0
2 2 2 2 2 2 1 1 1 1 1 1 1 1 1 1 1 1 1 1 1 1 2 2 2 2 2 2 2 2 2 1 1 1 1 1 1 1 0 0 -0 -0 -0
1 1 1 1 1 1 1 1 0 0 0 0 0 0 0 0 0 0 0 0 1 1 1 1 1 1 1 1 1 1 1 1 1 0 0 0 0 -0 -1 -1 -1 -1 -1
1 1 1 1 1 0 0 -0 -0 -1 -1 -1 -1 -1 -1 -1 -1 -1 -0 -0 -0 -0 -0 0 0 0 0 0 0 0 0 0 0 -0 -0 -0 -1 -1 -1 -1 -1 -1 -1
0 0 0 -0 -0 -0 -1 -1 -1 -1 -2 -2 -2 -2 -2 -1 -1 -1 -1 -1 -1 -1 -1 -1 -1 -1 -0 -0 -0 -0 -0 -1 -1 -1 -1 -1 -1 -2 -2 -2 -2 -2 -2
-0 -0 -1 -1 -1 -1 -1 -1 -1 -2 -2 -2 -2 -2 -2 -2 -2 -2 -2 -2 -2 -2 -2 -2 -1 -1 -1 -1 -1 -1 -1 -1 -1 -1 -2 -2 -2 -2 -2 -2 -2 -2 -2
-1 -1 -1 -1 -2 -2 -3 -3 -2 -2 -2 -2 -2 -3 -3 -2 -2 -2 -2 -2 -2 -2 -2 -2 -2 -2 -1 -1 -1 -1 -1 -1 -2 -2 -2 -2 -2 -3 -3 -3 -3 -3 -3
-1 -2 -2 -2 -3 -3 -3 -4 -4 -4 -3 -3 -3 -3 -3 -3 -3 -3 -3 -3 -3 -3 -3 -2 -2 -2 -2 -2 -2 -2 -2 -2 -2 -2 -2 -3 -3 -3 -3 -3 -3 -3 -3
-2 -2 -3 -3 -3 -4 -4 -4 -4 -4 -4 -4 -4 -3 -3 -3 -3 -3 -3 -3 -3 -3 -3 -3 -3 -2 -2 -2 -2 -2 -2 -2 -2 -3 -3 -3 -3 -3 -4 -3 -3 -3 -3
-3 -3 -3 -4 -4 -4 -4 -5 -5 -5 -5 -5 -5 -4 -4 -4 -4 -4 -4 -4 -4 -4 -3 -3 -3 -3 -3 -3 -3 -3 -3 -3 -3 -3 -3 -3 -3 -3 -3 -4 -4 -4 -3
-3 -3 -4 -4 -4 -5 -5 -5 -5 -5 -5 -5 -5 -5 -5 -5 -5 -5 -4 -4 -4 -4 -4 -4 -4 -4 -3 -3 -3 -3 -3 -3 -3 -3 -3 -3 -3 -3 -4 -4 -4 -4 -4
-4 -4 -4 -5 -5 -5 -6 -6 -6 -6 -6 -6 -6 -5 -6 -6 -5 -5 -5 -5 -5 -5 -4 -4 -4 -4 -4 -4 -4 -4 -4 -4 -3 -3 -3 -4 -4 -4 -4 -4 -4 -4 -4
-4 -5 -5 -5 -6 -6 -6 -6 -6 -6 -7 -6 -6 -6 -6 -6 -6 -6 -5 -5 -5 -5 -5 -5 -4 -4 -4 -4 -4 -4 -4 -4 -4 -4 -4 -4 -4 -4 -4 -4 -4 -4 -4
-5 -5 -6 -6 -6 -6 -7 -7 -7 -7 -7 -7 -7 -7 -7 -6 -6 -6 -6 -6 -5 -5 -5 -5 -5 -5 -4 -4 -4 -4 -4 -4 -4 -4 -4 -4 -4 -4 -4 -4 -4 -4 -4
-5 -6 -6 -6 -7 -7 -7 -7 -7 -7 -7 -7 -7 -7 -7 -7 -7 -7 -6 -6 -6 -6 -5 -5 -5 -5 -5 -5 -5 -4 -4 -4 -4 -4 -4 -4 -5 -5 -5 -5 -5 -5 -5
-6 -6 -6 -7 -7 -7 -7 -8 -8 -8 -8 -8 -8 -8 -8 -7 -7 -7 -7 -7 -6 -6 -6 -6 -6 -5 -5 -5 -5 -5 -5 -5 -5 -5 -5 -5 -5 -5 -5 -5 -5 -5 -5
Wind_Speed
5 4 4 4 3 3 3 2 1 1 2 3 4 5 5 6 6 6 7 6 7 7 7 8 8 6 6 5 4 4 4 4 4 2 2 2 4 5 5 5 5 4 4
5 5 5 4 4 3 2 2 2 1 1 2 2 3 5 5 6 7 7 8 9 9 9 8 8 7 7 6 5 6 5 5 5 5 3 3 3 5 5 4 4 4 4
6 6 6 5 4 3 3 2 2 2 1 1 2 3 4 4 5 6 7 8 8 9 9 10 9 8 8 6 7 6 5 5 4 5 4 2 2 3 3 2 2 2 3
7 7 6 5 4 4 3 3 3 2 2 2 1 2 3 3 4 5 6 6 7 7 8 8 9 9 10 9 8 8 6 6 5 5 4 3 3 3 4 4 3 2 2
7 7 7 6 5 5 5 4 3 3 3 2 2 2 2 3 4 5 5 6 6 6 6 7 7 9 11 10 8 8 8 7 6 6 5 4 4 4 5 4 4 2 2
7 7 6 6 6 6 5 5 5 4 3 3 3 3 3 4 6 8 7 5 6 7 7 6 7 9 11 14 14 13 13 10 9 7 6 7 7 6 5 5 4 3 3
7 7 7 6 6 6 6 6 5 5 4 4 4 4 5 6 9 9 9 6 6 7 7 6 6 7 10 8 11 13 13 15 13 9 8 8 8 8 8 6 5 5 4
7 7 7 6 6 6 6 6 6 5 5 4 5 5 5 7 9 10 9 6 6 6 7 7 8 8 8 9 8 7 7 7 8 7 7 7 7 8 9 8 7 4 2
7 7 7 6 6 7 7 6 5 5 5 5 5 5 6 7 9 10 9 5 5 7 7 7 8 8 12 13 9 8 6 4 6 8 8 9 10 12 11 7 6 5 3
6 6 6 6 6 6 6 6 5 5 5 6 6 6 6 7 10 10 9 4 6 6 6 7 10 11 13 15 11 10 10 7 6 5 5 6 6 9 13 9 8 6 3
5 5 6 6 6 5 6 5 6 6 6 6 7 7 7 8 10 11 10 5 5 6 6 6 7 13 15 16 14 10 12 9 8 7 5 4 4 3 4 5 5 6 5
4 5 6 6 6 6 6 6 6 6 6 7 7 7 6 7 8 10 12 11 8 6 6 6 7 12 14 15 13 12 14 11 7 6 6 5 5 4 3 4 5 4 3
5 5 5 6 6 6 6 6 6 5 5 6 7 8 8 6 7 11 12 12 12 7 6 8 9 11 12 11 13 14 12 8 8 7 7 6 4 5 5 4 5 6 6
5 6 6 6 6 6 6 5 6 6 6 7 7 8 8 7 6 6 6 8 9 7 6 7 9 10 8 8 9 9 8 8 8 7 7 5 5 5 5 4 4 4 3
5 5 6 6 6 6 6 6 6 6 7 8 7 7 8 9 9 12 9 7 6 6 5 3 3 3 5 5 5 6 6 7 8 7 7 6 6 6 5 4 4 4 3
5 5 5 5 6 6 7 8 9 9 13 14 13 11 9 12 16 15 15 14 13 10 5 4 5 5 6 6 7 7 7 8 8 7 7 8 8 8 7 5 4 4 4
4 5 5 5 6 6 7 8 9 10 12 13 14 15 14 15 16 15 14 13 12 9 5 4 5 5 6 6 7 7 7 7 8 8 8 8 8 8 7 7 6 5 5
5 6 6 5 6 6 6 7 7 9 10 9 10 14 16 15 15 14 13 10 6 5 4 4 4 4 5 5 6 6 6 7 7 8 8 8 8 8 8 8 8 7 6
4 4 5 5 6 6 6 7 7 8 8 9 9 9 13 14 14 13 10 5 5 4 4 4 4 4 4 4 5 5 6 7 8 8 8 9 9 8 8 8 8 11 8
4 8 7 6 6 6 6 6 7 7 8 8 8 8 8 8 7 7 5 4 4 4 4 4 4 4 4 4 4 4 5 6 8 8 8 8 8 8 9 9 9 8 8
4 6 9 7 6 6 6 7 7 7 7 8 8 9 13 8 7 7 6 5 4 5 4 4 4 3 3 3 4 4 5 6 6 7 7 8 8 8 8 8 8 8 7
4 5 5 6 6 6 6 6 6 7 8 9 8 9 13 8 7 6 6 5 5 5 4 3 3 3 3 3 4 4 5 5 5 6 7 7 7 8 8 8 8 8 8
4 5 6 6 6 8 8 6 6 7 7 8 8 8 8 7 7 7 7 6 5 4 4 3 3 3 2 3 3 4 5 5 5 6 7 7 7 7 7 8 9 9 9
4 5 6 6 6 5 6 7 7 7 7 8 8 7 7 7 7 7 7 6 5 4 3 3 2 2 3 2 2 3 4 4 5 6 8 7 7 7 7 7 8 8 8
4 5 5 5 6 6 6 7 7 7 7 7 7 7 7 7 7 7 6 5 5 5 4 3 2 2 2 2 2 2 3 5 5 5 6 6 7 7 7 7 7 7 6
4 5 5 5 5 5 6 6 7 7 7 7 7 7 7 6 6 6 6 5 5 4 4 4 3 3 3 2 2 1 2 3 4 6 5 5 6 6 7 6 7 7 7
Wind_Direction
64 67 64 56 65 69 65 56 67 168 193 191 201 204 211 213 211 211 214 208 213 218 213 211 215 200 198 196 190 183 188 179 198 176 151 155 162 168 165 169 170 165 173
59 62 59 53 57 61 47 33 35 25 217 205 217 223 223 221 218 216 219 217 215 216 214 210 213 201 198 194 192 192 191 181 179 180 173 168 173 176 165 170 175 175 185
46 48 47 46 47 45 34 20 25 17 343 244 211 227 231 229 228 228 227 227 225 223 217 213 211 198 205 200 197 195 189 181 170 169 174 167 157 160 152 168 168 174 198
38 40 35 33 34 29 26 27 21 15 3 345 302 257 247 244 241 236 230 231 233 232 226 219 213 206 208 201 200 196 184 179 170 169 170 166 161 156 157 171 183 191 203
38 36 28 22 24 24 20 19 18 16 3 348 331 318 294 265 250 246 239 234 233 235 233 226 219 212 210 204 202 196 186 184 178 181 180 172 176 171 184 175 181 171 214
37 32 25 22 21 19 13 10 9 3 353 347 332 318 302 289 276 268 261 245 238 235 236 232 224 217 214 213 211 202 192 188 189 188 191 193 193 184 169 168 159 161 216
33 26 20 16 15 10 5 6 360 353 350 341 327 310 293 284 278 272 264 258 245 240 235 231 231 224 214 211 212 208 206 205 197 186 192 197 185 182 170 170 175 177 195
26 18 11 10 7 1 4 1 351 345 342 332 320 309 301 296 293 285 277 266 254 249 241 231 229 226 213 202 198 198 201 202 199 195 196 192 185 178 177 175 170 147 105
17 9 1 359 358 357 356 349 341 337 333 323 315 308 300 298 297 293 288 268 258 256 250 237 230 227 222 209 197 193 193 200 199 191 190 190 188 182 167 142 146 150 169
1 355 353 356 354 347 339 332 327 325 319 317 313 307 299 296 296 295 291 272 263 263 256 243 233 231 226 213 200 191 197 193 171 166 167 173 172 179 178 169 167 164 159
345 350 354 353 346 336 331 327 322 321 319 315 309 305 299 295 296 293 289 280 262 258 254 251 241 233 228 218 208 200 202 180 166 161 156 151 143 148 157 164 166 164 166
348 351 347 343 340 341 336 330 327 325 321 316 314 311 303 296 295 293 290 284 280 262 254 251 246 235 228 222 215 203 195 178 160 161 167 175 172 169 159 148 150 146 148
351 344 337 335 334 335 332 328 328 327 323 318 316 312 309 304 298 297 294 289 284 277 263 256 250 240 229 223 213 200 190 175 168 178 186 188 177 160 142 126 108 104 88
347 338 334 332 329 329 327 324 324 324 320 315 313 310 309 307 300 297 292 289 283 276 272 262 254 241 222 212 205 199 189 178 179 187 184 169 151 151 156 150 146 141 131
338 331 328 326 322 321 320 313 311 298 301 309 305 302 306 306 303 303 298 286 278 269 275 261 235 222 211 201 193 190 183 179 186 179 175 169 168 168 168 157 150 151 165
329 326 323 322 322 323 321 318 312 309 313 313 308 306 302 301 308 308 302 293 285 275 268 249 237 223 217 210 204 198 194 192 188 181 180 178 177 177 172 166 161 169 180
314 315 315 317 318 319 319 318 318 320 319 317 316 317 315 315 314 311 308 303 291 278 264 254 242 228 222 213 209 204 200 193 184 182 183 181 177 176 174 178 180 180 188
305 307 310 304 305 306 307 307 307 311 316 317 318 319 320 320 318 315 313 308 295 284 268 261 250 234 225 219 212 207 198 186 185 186 185 182 179 178 181 185 187 188 188
306 304 303 301 301 300 300 302 303 304 305 308 313 318 322 321 318 316 316 302 293 286 278 272 259 242 233 223 215 206 197 190 187 187 188 186 183 182 187 189 188 194 191
299 307 313 307 303 301 301 302 305 306 307 308 310 311 318 319 316 314 310 298 290 285 278 272 261 244 233 223 213 206 199 192 188 190 189 187 186 186 189 188 188 190 195
291 303 311 307 300 300 301 300 302 304 305 307 306 308 317 316 310 305 302 296 289 284 278 273 264 247 235 223 211 204 200 198 192 189 187 186 186 188 188 188 189 190 190
289 293 298 299 299 301 302 300 301 303 305 307 308 312 319 320 315 311 306 300 293 287 278 269 260 248 234 221 213 206 203 199 193 188 185 184 184 186 185 186 188 189 190
290 295 298 298 298 306 309 304 304 306 307 309 311 314 317 318 318 317 314 310 304 302 296 280 263 251 241 227 213 206 205 203 195 186 183 182 182 183 184 188 190 189 192
291 295 298 299 302 301 302 305 307 309 310 311 312 313 314 316 317 318 318 318 319 317 312 304 293 277 259 240 229 223 218 207 192 186 181 182 183 184 186 187 188 190 192
291 295 297 298 302 304 305 307 310 313 312 313 314 316 316 316 317 318 320 321 322 323 323 320 313 300 284 265 252 243 224 206 197 188 180 182 182 183 182 183 184 183 186
292 295 297 299 301 303 305 307 309 309 309 312 313 313 314 314 315 316 320 325 326 327 328 332 335 328 317 305 293 266 222 203 197 187 177 174 178 182 180 183 182 184 182
Height
1447 1448 1450 1450 1451 1453 1454 1455 1456 1458 1459 1461 1463 1465 1468 1469 1471 1472 1473 1473 1475 1476 1477 1478 1478 1479 1480 1481 1482 1482 1484 1485 1485 1485 1486 1488 1489 1489 1490 1491 1491 1491 1491
1447 1448 1449 1449 1450 1451 1452 1453 1454 1455 1456 1457 1458 1460 1462 1463 1464 1465 1466 1467 1468 1468 1469 1470 1471 1472 1472 1473 1474 1475 1477 1478 1479 1480 1481 1481 1483 1484 1485 1486 1486 1487 1487
1448 1448 1449 1449 1450 1450 1451 1451 1451 1452 1452 1453 1454 1456 1457 1457 1458 1459 1460 1460 1461 1461 1462 1462 1463 1464 1465 1466 1467 1468 1469 1471 1473 1474 1474 1476 1477 1478 1479 1481 1481 1482 1483
1449 1449 1449 1449 1449 1449 1449 1449 1449 1449 1449 1450 1450 1451 1451 1452 1452 1453 1453 1454 1454 1454 1455 1455 1456 1457 1458 1459 1461 1461 1463 1464 1466 1467 1468 1470 1471 1472 1474 1475 1476 1478 1479
1450 1450 1450 1449 1449 1448 1448 1447 1447 1447 1447 1447 1446 1446 1446 1447 1447 1447 1447 1447 1447 1447 1448 1448 1449 1450 1451 1453 1454 1455 1456 1457 1459 1460 1462 1463 1465 1466 1468 1470 1472 1473 1474
1451 1451 1450 1449 1448 1447 1446 1445 1445 1445 1444 1444 1443 1442 1442 1442 1442 1442 1441 1441 1441 1441 1441 1442 1442 1443 1445 1446 1447 1448 1450 1451 1452 1453 1455 1456 1458 1460 1463 1465 1466 1468 1469
1452 1451 1450 1449 1448 1446 1445 1444 1443 1442 1441 1440 1439 1439 1438 1437 1437 1436 1436 1435 1435 1435 1435 1435 1436 1436 1438 1439 1440 1441 1442 1444 1446 1447 1449 1451 1453 1455 1457 1459 1461 1462 1464
1453 1451 1450 1449 1447 1445 1444 1442 1441 1440 1438 1437 1436 1435 1434 1433 1432 1431 1430 1430 1429 1429 1429 1429 1429 1430 1431 1432 1433 1434 1436 1437 1439 1441 1443 1446 1448 1450 1452 1455 1456 1458 1460
1453 1451 1449 1447 1446 1444 1442 1440 1439 1437 1436 1434 1433 1431 1429 1428 1428 1427 1426 1424 1423 1423 1423 1423 1423 1424 1425 1426 1427 1428 1429 1431 1433 1435 1438 1440 1442 1444 1447 1449 1451 1453 1455
1453 1451 1449 1447 1445 1443 1441 1439 1437 1435 1433 1431 1429 1427 1425 1424 1423 1422 1420 1419 1418 1417 1416 1416 1417 1417 1418 1419 1420 1422 1423 1425 1427 1429 1432 1434 1436 1439 1441 1444 1447 1449 1450
1452 1450 1448 1446 1444 1441 1439 1437 1435 1432 1430 1427 1425 1423 1421 1419 1418 1417 1415 1414 1413 1411 1410 1410 1410 1411 1412 1413 1414 1416 1417 1419 1421 1424 1426 1429 1431 1434 1436 1439 1442 1444 1446
1451 1449 1447 1444 1442 1439 1437 1434 1432 1429 1427 1424 1421 1419 1417 1415 1413 1411 1410 1409 1407 1406 1405 1404 1404 1405 1405 1407 1408 1410 1412 1413 1415 1418 1421 1423 1426 1429 1432 1434 1437 1439 1442
1449 1447 1445 1442 1440 1437 1435 1432 1429 1426 1424 1421 1418 1415 1412 1410 1408 1406 1404 1403 1401 1400 1399 1399 1399 1399 1399 1401 1402 1404 1406 1407 1410 1412 1415 1418 1421 1424 1427 1429 1431 1434 1437
1446 1444 1442 1440 1437 1434 1432 1429 1426 1423 1420 1418 1415 1412 1408 1406 1403 1401 1399 1397 1396 1394 1393 1393 1393 1393 1394 1395 1397 1399 1400 1402 1404 1407 1410 1413 1416 1418 1421 1424 1427 1430 1433
1444 1442 1439 1437 1434 1431 1428 1426 1422 1420 1418 1415 1411 1408 1405 1401 1399 1397 1395 1392 1391 1390 1388 1388 1387 1388 1388 1389 1391 1393 1395 1397 1399 1402 1405 1408 1411 1413 1416 1419 1422 1425 1428
1441 1439 1436 1433 1430 1427 1424 1422 1419 1417 1414 1411 1408 1405 1401 1398 1395 1392 1390 1387 1386 1385 1384 1383 1382 1383 1383 1385 1386 1388 1390 1392 1394 1397 1400 1402 1405 1408 1412 1415 1418 1421 1424
1439 1436 1433 1430 1427 1424 1421 1418 1414 1411 1409 1406 1403 1400 1396 1393 1390 1387 1385 1382 1381 1380 1379 1378 1378 1378 1379 1380 1381 1383 1385 1387 1389 1392 1394 1397 1400 1403 1407 1410 1413 1416 1419
1436 1433 1430 1427 1424 1421 1418 1415 1411 1407 1403 1400 1398 1395 1392 1388 1385 1382 1380 1378 1376 1375 1374 1374 1374 1374 1374 1375 1376 1378 1380 1382 1384 1387 1389 1392 1395 1398 1401 1404 1408 1411 1414
1432 1429 1427 1423 1420 1417 1414 1411 1408 1404 1400 1396 1393 1390 1387 1384 1381 1378 1376 1374 1372 1371 1370 1370 1370 1370 1370 1371 1372 1373 1375 1377 1379 1382 1384 1387 1390 1393 1396 1400 1403 1406 1409
1428 1426 1423 1419 1416 1413 1410 1407 1404 1400 1396 1393 1389 1386 1383 1379 1376 1374 1372 1371 1369 1368 1367 1366 1366 1366 1366 1366 1367 1369 1370 1372 1375 1377 1380 1383 1386 1389 1392 1395 1398 1401 1404
1424 1421 1419 1415 1412 1409 1406 1403 1400 1397 1393 1390 1386 1383 1380 1377 1373 1370 1369 1367 1366 1364 1363 1362 1362 1361 1362 1362 1363 1364 1366 1368 1370 1373 1375 1378 1381 1384 1387 1391 1394 1397 1400
1420 1417 1415 1412 1409 1406 1403 1400 1397 1393 1390 1386 1383 1380 1377 1373 1370 1367 1365 1363 1362 1361 1360 1359 1358 1358 1358 1359 1359 1361 1362 1364 1366 1369 1371 1374 1377 1380 1383 1386 1389 1392 1395
1416 1413 1410 1408 1405 1402 1399 1396 1393 1390 1386 1383 1379 1376 1373 1370 1367 1364 1362 1360 1359 1357 1356 1356 1355 1355 1355 1356 1356 1357 1359 1360 1362 1365 1367 1370 1373 1375 1378 1381 1384 1387 1390
1412 1409 1406 1403 1401 1398 1395 1392 1389 1386 1383 1379 1376 1373 1370 1367 1365 1362 1360 1358 1356 1355 1354 1353 1352 1352 1352 1353 1354 1354 1356 1357 1359 1361 1364 1366 1369 1371 1374 1377 1380 1382 1386
1407 1405 1402 1399 1397 1394 1391 1388 1385 1382 1379 1376 1373 1370 1367 1365 1362 1360 1358 1356 1354 1352 1351 1350 1350 1350 1350 1350 1351 1352 1353 1355 1356 1358 1360 1363 1365 1367 1370 1372 1375 1378 1381
1403 1400 1398 1395 1392 1390 1387 1384 1381 1379 1376 1373 1371 1368 1365 1363 1360 1358 1356 1354 1352 1350 1349 1348 1348 1347 1347 1348 1349 1349 1350 1352 1353 1355 1357 1359 1361 1363 1366 1368 1371 1373 1376